CDT,Max TemperatureF,Mean TemperatureF,Min TemperatureF,Max Dew PointF,MeanDew PointF,Min DewpointF,Max Humidity, Mean Humidity, Min Humidity, Max Sea Level PressureIn, Mean Sea Level PressureIn, Min Sea Level PressureIn, Max VisibilityMiles, Mean VisibilityMiles, Min VisibilityMiles, Max Wind SpeedMPH, Mean Wind SpeedMPH, Max Gust SpeedMPH,PrecipitationIn, CloudCover, Events, WindDirDegrees
2012-9-1,92,78,63,68,64,62,100,69,38,30.02,29.96,29.91,10,10,7,9,4,15,0.00,0,,276
2012-9-2,96,82,67,68,66,64,90,63,36,29.97,29.87,29.79,10,10,10,16,8,20,0.00,0,,146
2012-9-3,94,81,68,72,68,65,90,68,46,29.86,29.82,29.80,10,10,10,12,5,14,0.00,0,,91
2012-9-4,97,80,63,71,64,58,100,64,27,29.97,29.84,29.73,10,6,0,39,7,51,0.18,1,Fog-Rain-Thunderstorm,179
2012-9-5,89,76,63,65,58,48,100,64,28,29.93,29.84,29.73,10,10,10,20,9,26,0.00,0,,360
2012-9-6,91,73,54,66,57,47,77,57,37,29.99,29.87,29.76,10,10,5,26,9,33,0.04,1,Rain-Thunderstorm,150
2012-9-7,78,66,53,62,54,48,87,66,44,30.15,29.98,29.76,10,10,4,24,10,32,0.20,3,Rain-Thunderstorm,331
2012-9-8,83,65,47,49,45,39,93,58,22,30.23,30.13,30.02,10,10,10,16,8,24,0.00,0,,284
2012-9-9,78,64,50,48,44,41,71,50,28,30.24,30.15,30.05,10,10,10,10,6,16,0.00,0,,66
2012-9-10,88,70,52,51,48,45,77,50,23,30.11,30.01,29.90,10,10,10,24,13,30,0.00,0,,170
2012-9-11,94,78,62,48,46,44,56,38,19,29.90,29.85,29.79,10,10,10,30,19,37,0.00,0,,173
2012-9-12,85,70,54,54,51,43,93,64,34,30.21,29.99,29.80,10,10,2,30,13,40,0.21,3,Rain-Thunderstorm,51
2012-9-13,63,57,50,54,50,47,96,76,56,30.43,30.34,30.19,10,9,3,21,9,28,0.41,5,Rain,23
2012-9-14,75,60,45,48,43,37,100,64,27,30.41,30.36,30.29,10,10,9,12,3,21,0.00,0,,197
2012-9-15,74,59,44,60,51,42,97,75,53,30.28,30.19,30.09,10,10,10,12,4,15,0.00,3,,143
2012-9-16,76,67,58,61,59,56,100,77,54,30.09,30.02,29.90,10,9,1,15,7,20,0.00,5,,192
2012-9-17,67,59,50,58,53,47,100,78,56,30.09,29.95,29.87,10,8,1,24,9,38,0.00,3,,349
2012-9-18,76,59,42,48,42,37,89,60,31,30.14,30.05,29.91,10,9,2,21,8,26,0.00,1,,185
2012-9-19,92,74,55,53,45,38,66,43,20,29.99,29.88,29.78,10,10,10,21,10,28,0.00,0,,219
2012-9-20,76,60,44,43,38,33,76,49,21,30.06,30.00,29.91,10,10,10,14,6,17,0.00,0,,130
2012-9-21,81,66,51,42,39,35,66,43,20,29.95,29.91,29.87,10,10,10,25,10,35,0.00,0,,297
2012-9-22,70,59,47,41,30,21,68,43,18,30.28,30.18,29.96,10,10,10,20,8,25,0.00,0,,21
2012-9-23,72,55,38,37,31,26,76,48,20,30.33,30.25,30.17,10,10,10,16,5,21,0.00,0,,128
2012-9-24,72,57,42,53,45,37,82,65,48,30.15,29.97,29.81,10,10,10,12,4,15,0.00,0,,101
2012-9-25,83,67,51,56,53,49,89,63,36,29.86,29.82,29.79,10,10,10,12,5,15,T,0,,26
2012-9-26,70,60,50,62,57,54,100,86,72,30.14,30.04,29.83,10,7,0,10,2,30,0.04,4,Fog-Rain-Thunderstorm,189
2012-9-27,78,63,47,52,45,31,100,59,17,30.19,30.14,30.09,10,7,0,13,4,16,0.00,0,Fog,141
2012-9-28,78,63,48,55,44,40,80,55,29,30.17,30.13,30.08,10,10,10,13,3,18,0.00,1,,119
2012-9-29,76,60,44,50,44,39,93,60,27,30.17,30.11,30.04,10,10,6,13,3,15,0.00,0,,146
2012-9-30,78,63,48,46,43,38,86,55,24,30.04,29.97,29.90,10,10,10,10,3,14,0.00,0,,207